Location: Grange Verzio
(44.5000°N, 6.9833°E)
Time: 10:21:44
(UTC+00:00)

IRIDIUM 103 - Pass Details

Date: 01 February 2023
Orbit: 776 x 779 km, 86.4° (Epoch: 30 March)

Event Time Altitude Azimuth Distance (km) Brightness Sun altitude
Rises 18:15:33 0° 360° (N) 3,272 7.5 -17.1°
Reaches altitude 10° 18:17:57 10° 4° (N) 2,340 6.7 -17.5°
Maximum altitude 18:23:08 60° 84° (E) 888 4.3 -18.4°
Drops below altitude 10° 18:28:16 10° 165° (SSE) 2,322 6.7 -19.3°
Sets 18:30:38 0° 169° (SSE) 3,245 7.5 -19.8°
